| time (UTC) | temp F | wind direction | speed knots | gust knots | rain 1hr in | rain 24hr in | rain mn in | humidity % | barometer mb |
| 20260508142723 | 58 | 259 | 12.2 | 17.4 | 0.00 | 0.00 | 0.00 | 64 | |
| 20260508141802 | 58 | 264 | 12.2 | 19.1 | 0.00 | 0.00 | 0.00 | 66 | |
| 20260508140903 | 59 | 265 | 11.3 | 19.1 | 0.00 | 0.00 | 0.00 | 67 | |
| 20260508140002 | 58 | 272 | 12.2 | 19.1 | 0.00 | 0.00 | 0.00 | 67 | |
| 20260508135403 | 58 | 266 | 11.3 | 16.5 | 0.00 | 0.00 | 0.00 | 68 | |
| 20260508134503 | 57 | 255 | 9.6 | 16.5 | 0.00 | 0.00 | 0.00 | 69 | |
| 20260508133602 | 58 | 267 | 6.1 | 13.9 | 0.00 | 0.00 | 0.00 | 70 | |
| 20260508132702 | 58 | 279 | 7.8 | 13.9 | 0.00 | 0.00 | 0.00 | 69 | |
| 20260508131823 | 58 | 279 | 7.8 | 16.5 | 0.00 | 0.00 | 0.00 | 69 | |
| 20260508130902 | 58 | 261 | 9.6 | 14.8 | 0.00 | 0.00 | 0.00 | 73 | |
| 20260508130003 | 58 | 273 | 8.7 | 14.8 | 0.00 | 0.00 | 0.00 | 71 | |
| 20260508125423 | 58 | 282 | 7.8 | 14.8 | 0.00 | 0.00 | 0.00 | 73 | |
| 20260508124523 | 58 | 277 | 7.8 | 14.8 | 0.00 | 0.00 | 0.00 | 73 | |
| 20260508123602 | 57 | 272 | 7.8 | 13.9 | 0.00 | 0.00 | 0.00 | 74 | |
| 20260508122723 | 57 | 274 | 7.8 | 14.8 | 0.00 | 0.00 | 0.00 | 72 | |
| 20260508121802 | 57 | 272 | 6.1 | 10.4 | 0.00 | 0.00 | 0.00 | 72 | |
| 20260508120902 | 57 | 286 | 7.0 | 11.3 | 0.00 | 0.00 | 0.00 | 70 | |
| 20260508120003 | 59 | 286 | 6.1 | 11.3 | 0.00 | 0.00 | 0.00 | 71 | |
| 20260508115402 | 57 | 253 | 6.1 | 11.3 | 0.00 | 0.00 | 0.00 | 65 | |
| 20260508114503 | 58 | 229 | 5.2 | 8.7 | 0.00 | 0.00 | 0.00 | 62 | |
| 20260508113624 | 56 | 247 | 4.3 | 7.0 | 0.00 | 0.00 | 0.00 | 66 | |
| 20260508112703 | 56 | 256 | 5.2 | 9.6 | 0.00 | 0.00 | 0.00 | 66 | |
| 20260508111803 | 56 | 271 | 6.1 | 11.3 | 0.00 | 0.00 | 0.00 | 70 | |
| 20260508110902 | 56 | 246 | 7.8 | 11.3 | 0.00 | 0.00 | 0.00 | 67 | |
| 20260508110024 | 57 | 229 | 6.1 | 12.2 | 0.00 | 0.00 | 0.00 | 63 | |
| 20260508105403 | 58 | 224 | 7.0 | 14.8 | 0.00 | 0.00 | 0.00 | 63 | |
| 20260508104524 | 58 | 226 | 7.0 | 13.9 | 0.00 | 0.00 | 0.00 | 64 | |
| 20260508103603 | 57 | 235 | 6.1 | 14.8 | 0.00 | 0.00 | 0.00 | 64 | |
| 20260508102724 | 56 | 253 | 6.1 | 10.4 | 0.00 | 0.00 | 0.00 | 65 | |
| 20260508101803 | 56 | 236 | 7.0 | 12.2 | 0.00 | 0.00 | 0.00 | 65 | |
| 20260508100923 | 56 | 219 | 5.2 | 10.4 | 0.00 | 0.00 | 0.00 | 64 | |
| 20260508100003 | 56 | 202 | 6.1 | 12.2 | 0.00 | 0.00 | 0.00 | 62 | |
| 20260508095403 | 57 | 199 | 5.2 | 12.2 | 0.00 | 0.00 | 0.00 | 63 | |
| 20260508094502 | 57 | 206 | 6.1 | 13.9 | 0.00 | 0.00 | 0.00 | 63 | |
| 20260508093603 | 55 | 223 | 5.2 | 12.2 | 0.00 | 0.00 | 0.00 | 66 | |
| 20260508092724 | 55 | 230 | 9.6 | 14.8 | 0.00 | 0.00 | 0.00 | 66 | |
| 20260508091802 | 54 | 210 | 8.7 | 15.6 | 0.00 | 0.00 | 0.00 | 66 | |
| 20260508090902 | 56 | 216 | 6.1 | 11.3 | 0.00 | 0.00 | 0.00 | 71 | |
| 20260508090004 | 55 | 214 | 7.8 | 16.5 | 0.00 | 0.00 | 0.00 | 70 | |
| 20260508085403 | 54 | 209 | 6.1 | 11.3 | 0.00 | 0.00 | 0.00 | 70 | |
| 20260508084502 | 54 | 206 | 5.2 | 10.4 | 0.00 | 0.00 | 0.00 | 70 | |
| 20260508083603 | 54 | 199 | 7.0 | 14.8 | 0.00 | 0.00 | 0.00 | 70 | |
| 20260508082703 | 55 | 193 | 7.0 | 13.9 | 0.00 | 0.00 | 0.00 | 71 | |
| 20260508081803 | 54 | 204 | 6.1 | 12.2 | 0.00 | 0.00 | 0.00 | 71 | |
| 20260508080903 | 53 | 201 | 6.1 | 13.9 | 0.00 | 0.00 | 0.00 | 73 | |
| 20260508080003 | 52 | 197 | 6.1 | 12.2 | 0.00 | 0.00 | 0.00 | 76 | |
| 20260508075403 | 52 | 193 | 6.1 | 12.2 | 0.00 | 0.00 | 0.00 | 76 | |
| 20260508074503 | 51 | 187 | 7.0 | 14.8 | 0.00 | 0.00 | 0.00 | 77 | |
| 20260508073603 | 51 | 179 | 6.1 | 14.8 | 0.00 | 0.00 | 0.00 | 78 | |
| 20260508072724 | 50 | 185 | 6.1 | 15.6 | 0.00 | 0.00 | 0.00 | 79 | |
| 20260508071803 | 50 | 180 | 6.1 | 12.2 | 0.00 | 0.00 | 0.00 | 80 | |
| 20260508070903 | 49 | 180 | 5.2 | 12.2 | 0.00 | 0.00 | 0.00 | 80 | |
| 20260508070003 | 49 | 185 | 7.0 | 16.5 | 0.00 | 0.00 | 0.00 | 80 | |
| 20260508065424 | 49 | 183 | 6.1 | 15.6 | 0.00 | 0.00 | 0.00 | 80 | |
| 20260508064524 | 49 | 180 | 7.0 | 15.6 | 0.00 | 0.00 | 0.00 | 79 | |
| 20260508063602 | 49 | 174 | 5.2 | 12.2 | 0.00 | 0.00 | 0.00 | 80 | |
| 20260508062703 | 49 | 169 | 5.2 | 11.3 | 0.00 | 0.00 | 0.00 | 80 | |
| 20260508061803 | 49 | 181 | 6.1 | 13.9 | 0.00 | 0.00 | 0.00 | 81 | |
| 20260508060903 | 49 | 169 | 5.2 | 11.3 | 0.00 | 0.00 | 0.00 | 81 | |
| 20260508060003 | 48 | 169 | 6.1 | 14.8 | 0.00 | 0.00 | 0.00 | 82 | |
| 20260508055403 | 48 | 168 | 6.1 | 14.8 | 0.00 | 0.00 | 0.00 | 82 | |
| 20260508054524 | 48 | 169 | 6.1 | 16.5 | 0.00 | 0.00 | 0.00 | 83 | |
| 20260508053603 | 48 | 167 | 5.2 | 12.2 | 0.00 | 0.00 | 0.00 | 83 | |
| 20260508052703 | 48 | 163 | 5.2 | 12.2 | 0.00 | 0.00 | 0.00 | 84 | |
| 20260508051803 | 48 | 164 | 5.2 | 12.2 | 0.00 | 0.00 | 0.00 | 84 | |
| 20260508050924 | 48 | 170 | 5.2 | 11.3 | 0.00 | 0.00 | 0.00 | 84 | |
| 20260508050003 | 47 | 176 | 6.1 | 13.9 | 0.00 | 0.00 | 0.00 | 84 | |
| 20260508045424 | 47 | 171 | 6.1 | 12.2 | 0.00 | 0.00 | 0.00 | 84 | |
| 20260508044503 | 47 | 170 | 5.2 | 11.3 | 0.00 | 0.00 | 0.00 | 84 | |
| 20260508043603 | 47 | 162 | 5.2 | 12.2 | 0.00 | 0.00 | 0.00 | 85 | |
| 20260508042724 | 46 | 161 | 5.2 | 12.2 | 0.00 | 0.00 | 0.00 | 86 | |
| 20260508041803 | 46 | 161 | 5.2 | 11.3 | 0.00 | 0.00 | 0.00 | 86 | |
| 20260508040903 | 46 | 155 | 4.3 | 11.3 | 0.00 | 0.00 | 0.00 | 86 | |
| 20260508040003 | 46 | 145 | 3.5 | 7.0 | 0.00 | 0.00 | 0.00 | 85 | |
| 20260508035403 | 46 | 141 | 4.3 | 7.0 | 0.00 | 0.00 | 0.00 | 85 | |
| 20260508034524 | 46 | 141 | 4.3 | 9.6 | 0.00 | 0.00 | 0.00 | 84 | |
| 20260508033624 | 46 | 142 | 3.5 | 6.1 | 0.00 | 0.00 | 0.00 | 84 | |
| 20260508032703 | 46 | 148 | 3.5 | 8.7 | 0.00 | 0.00 | 0.00 | 83 | |
| 20260508031824 | 46 | 148 | 3.5 | 6.1 | 0.00 | 0.00 | 0.00 | 82 | |
| 20260508030903 | 46 | 142 | 2.6 | 6.1 | 0.00 | 0.00 | 0.00 | 81 | |
| 20260508030003 | 47 | 150 | 3.5 | 7.0 | 0.00 | 0.00 | 0.00 | 81 | |
| 20260508025403 | 47 | 156 | 3.5 | 7.0 | 0.00 | 0.00 | 0.00 | 81 | |
| 20260508024503 | 47 | 157 | 3.5 | 7.0 | 0.00 | 0.00 | 0.00 | 81 | |
| 20260508023603 | 47 | 162 | 2.6 | 7.0 | 0.00 | 0.00 | 0.00 | 82 | |
| 20260508022703 | 47 | 161 | 3.5 | 7.0 | 0.00 | 0.00 | 0.00 | 82 | |
| 20260508021803 | 47 | 171 | 3.5 | 7.0 | 0.00 | 0.00 | 0.00 | 82 | |
| 20260508020903 | 47 | 168 | 3.5 | 7.0 | 0.00 | 0.00 | 0.00 | 82 | |
| 20260508020004 | 48 | 167 | 3.5 | 10.4 | 0.00 | 0.00 | 0.00 | 81 | |
| 20260508015403 | 48 | 165 | 3.5 | 9.6 | 0.00 | 0.00 | 0.00 | 81 | |
| 20260508014504 | 48 | 158 | 4.3 | 9.6 | 0.00 | 0.00 | 0.00 | 81 | |
| 20260508013603 | 48 | 164 | 4.3 | 10.4 | 0.00 | 0.00 | 0.00 | 81 | |
| 20260508012703 | 48 | 167 | 4.3 | 10.4 | 0.00 | 0.00 | 0.00 | 81 | |
| 20260508011803 | 49 | 171 | 3.5 | 7.0 | 0.00 | 0.00 | 0.00 | 80 | |
| 20260508010924 | 49 | 173 | 3.5 | 7.0 | 0.00 | 0.00 | 0.00 | 80 | |
| 20260508010003 | 49 | 175 | 3.5 | 10.4 | 0.00 | 0.00 | 0.00 | 80 | |
| 20260508005403 | 49 | 178 | 3.5 | 6.1 | 0.00 | 0.00 | 0.00 | 80 | |
| 20260508004503 | 49 | 166 | 3.5 | 10.4 | 0.00 | 0.00 | 0.00 | 80 | |
| 20260508003603 | 49 | 161 | 3.5 | 8.7 | 0.00 | 0.00 | 0.00 | 80 | |
| 20260508002724 | 49 | 165 | 2.6 | 7.0 | 0.00 | 0.00 | 0.00 | 80 | |
| 20260508001804 | 49 | 167 | 3.5 | 7.0 | 0.00 | 0.00 | 0.00 | 80 | |
| 20260508000903 | 49 | 167 | 3.5 | 8.7 | 0.00 | 0.00 | 0.00 | 80 | |
| 20260508000003 | 49 | 164 | 3.5 | 9.6 | 0.00 | 0.00 | 0.00 | 80 | |
| 20260507235404 | 49 | 162 | 4.3 | 9.6 | 0.00 | 0.00 | 0.00 | 79 | |
| 20260507234524 | 49 | 171 | 4.3 | 9.6 | 0.00 | 0.00 | 0.00 | 79 | |
| 20260507233602 | 49 | 175 | 4.3 | 10.4 | 0.00 | 0.00 | 0.00 | 78 | |
| 20260507232723 | 49 | 165 | 5.2 | 10.4 | 0.00 | 0.00 | 0.00 | 78 | |
| 20260507231802 | 49 | 169 | 4.3 | 7.0 | 0.00 | 0.00 | 0.00 | 78 | |
| 20260507230902 | 49 | 171 | 4.3 | 9.6 | 0.00 | 0.00 | 0.00 | 78 | |
| 20260507230003 | 49 | 167 | 3.5 | 10.4 | 0.00 | 0.00 | 0.00 | 78 | |
| 20260507225402 | 49 | 170 | 4.3 | 10.4 | 0.00 | 0.00 | 0.00 | 78 | |
| 20260507224502 | 49 | 193 | 4.3 | 8.7 | 0.00 | 0.00 | 0.00 | 77 | |
| 20260507223602 | 49 | 214 | 4.3 | 7.0 | 0.00 | 0.00 | 0.00 | 76 | |
| 20260507222702 | 50 | 202 | 3.5 | 6.1 | 0.00 | 0.00 | 0.00 | 75 | |
| 20260507221802 | 50 | 197 | 3.5 | 7.0 | 0.00 | 0.00 | 0.00 | 74 | |
| 20260507220902 | 50 | 185 | 3.5 | 7.0 | 0.00 | 0.00 | 0.00 | 74 | |
| 20260507220002 | 51 | 181 | 4.3 | 11.3 | 0.00 | 0.00 | 0.00 | 73 | |
| 20260507215402 | 51 | 166 | 3.5 | 7.0 | 0.00 | 0.00 | 0.00 | 73 | |
| 20260507214502 | 51 | 166 | 4.3 | 10.4 | 0.00 | 0.00 | 0.00 | 73 | |
| 20260507213602 | 51 | 154 | 4.3 | 11.3 | 0.00 | 0.00 | 0.00 | 74 | |
| 20260507212702 | 51 | 147 | 3.5 | 9.6 | 0.00 | 0.00 | 0.00 | 74 | |
| 20260507211802 | 51 | 156 | 3.5 | 7.0 | 0.00 | 0.00 | 0.00 | 74 | |
| 20260507210923 | 51 | 159 | 3.5 | 9.6 | 0.00 | 0.00 | 0.00 | 74 | |
| 20260507210002 | 51 | 160 | 4.3 | 12.2 | 0.00 | 0.00 | 0.00 | 74 | |
| 20260507205402 | 51 | 158 | 4.3 | 12.2 | 0.00 | 0.00 | 0.00 | 74 | |
| 20260507204502 | 51 | 155 | 4.3 | 10.4 | 0.00 | 0.00 | 0.00 | 74 | |
| 20260507203602 | 51 | 153 | 3.5 | 9.6 | 0.00 | 0.00 | 0.00 | 74 | |
| 20260507202702 | 50 | 153 | 3.5 | 9.6 | 0.00 | 0.00 | 0.00 | 74 | |
| 20260507201802 | 51 | 165 | 2.6 | 6.1 | 0.00 | 0.00 | 0.00 | 74 | |
| 20260507200902 | 51 | 167 | 2.6 | 5.2 | 0.00 | 0.00 | 0.00 | 74 | |
| 20260507200002 | 51 | 170 | 2.6 | 7.0 | 0.00 | 0.00 | 0.00 | 73 | |
| 20260507195402 | 51 | 181 | 3.5 | 7.0 | 0.00 | 0.00 | 0.00 | 73 | |
| 20260507194502 | 51 | 163 | 1.7 | 6.1 | 0.00 | 0.00 | 0.00 | 73 | |
| 20260507193602 | 51 | 154 | 1.7 | 6.1 | 0.00 | 0.00 | 0.00 | 72 | |
| 20260507192702 | 51 | 165 | 2.6 | 5.2 | 0.00 | 0.00 | 0.00 | 72 | |
| 20260507191802 | 52 | 159 | 2.6 | 5.2 | 0.00 | 0.00 | 0.00 | 71 | |
| 20260507190902 | 52 | 186 | 1.7 | 5.2 | 0.00 | 0.00 | 0.00 | 70 | |
| 20260507190003 | 52 | 196 | 2.6 | 6.1 | 0.00 | 0.00 | 0.00 | 70 | |
| 20260507185423 | 52 | 196 | 3.5 | 6.1 | 0.00 | 0.00 | 0.00 | 70 | |
| 20260507184502 | 52 | 195 | 5.2 | 9.6 | 0.00 | 0.00 | 0.00 | 69 | |
| 20260507183602 | 52 | 192 | 5.2 | 10.4 | 0.00 | 0.00 | 0.00 | 69 | |
| 20260507182702 | 53 | 186 | 5.2 | 13.9 | 0.00 | 0.00 | 0.00 | 68 | |
| 20260507181802 | 53 | 190 | 6.1 | 14.8 | 0.00 | 0.00 | 0.00 | 68 | |
| 20260507180902 | 53 | 178 | 6.1 | 13.9 | 0.00 | 0.00 | 0.00 | 67 | |
| 20260507180002 | 53 | 175 | 5.2 | 12.2 | 0.00 | 0.00 | 0.00 | 67 | |
| 20260507175402 | 54 | 180 | 5.2 | 12.2 | 0.00 | 0.00 | 0.00 | 66 | |
| 20260507174502 | 54 | 191 | 4.3 | 11.3 | 0.00 | 0.00 | 0.00 | 67 | |
| 20260507173603 | 54 | 183 | 5.2 | 14.8 | 0.00 | 0.00 | 0.00 | 65 | |
| 20260507172723 | 54 | 196 | 9.6 | 19.1 | 0.00 | 0.00 | 0.00 | 63 | |
| 20260507171802 | 55 | 193 | 11.3 | 22.6 | 0.00 | 0.00 | 0.00 | 62 | |
| 20260507170923 | 54 | 193 | 7.8 | 22.6 | 0.00 | 0.00 | 0.00 | 63 | |
| 20260507170002 | 54 | 190 | 8.7 | 15.6 | 0.00 | 0.00 | 0.00 | 63 | |
| 20260507165402 | 55 | 198 | 8.7 | 20.9 | 0.00 | 0.00 | 0.00 | 63 | |
| 20260507164502 | 55 | 196 | 7.0 | 16.5 | 0.00 | 0.00 | 0.00 | 65 | |
| 20260507163602 | 55 | 197 | 7.0 | 16.5 | 0.00 | 0.00 | 0.00 | 64 | |
| 20260507162702 | 54 | 200 | 8.7 | 20.0 | 0.00 | 0.00 | 0.00 | 63 | |
| 20260507161802 | 54 | 200 | 8.7 | 19.1 | 0.00 | 0.00 | 0.00 | 64 | |
| 20260507160902 | 55 | 194 | 7.8 | 17.4 | 0.00 | 0.00 | 0.00 | 63 | |
| 20260507160023 | 55 | 192 | 7.0 | 17.4 | 0.00 | 0.00 | 0.00 | 64 | |
| 20260507155402 | 55 | 196 | 6.1 | 11.3 | 0.00 | 0.00 | 0.00 | 65 | |
| 20260507154502 | 54 | 194 | 6.1 | 14.8 | 0.00 | 0.00 | 0.00 | 66 | |
| 20260507153603 | 54 | 197 | 7.0 | 14.8 | 0.00 | 0.00 | 0.00 | 66 | |
| 20260507152702 | 54 | 196 | 7.8 | 17.4 | 0.00 | 0.00 | 0.00 | 67 | |
| 20260507151802 | 54 | 199 | 6.1 | 12.2 | 0.00 | 0.00 | 0.00 | 68 | |
| 20260507150902 | 54 | 199 | 7.8 | 15.6 | 0.00 | 0.00 | 0.00 | 68 | |
| 20260507150002 | 54 | 209 | 7.8 | 14.8 | 0.00 | 0.00 | 0.00 | 67 | |
| 20260507145403 | 54 | 207 | 9.6 | 15.6 | 0.00 | 0.00 | 0.00 | 67 | |
| 20260507144502 | 54 | 203 | 6.1 | 12.2 | 0.00 | 0.00 | 0.00 | 67 | |
| 20260507143602 | 53 | 203 | 8.7 | 16.5 | 0.00 | 0.00 | 0.00 | 69 |